EW2295 Weather Reports


time (UTC)temp
F
wind
direction
speed
knots
gust
knots
rain 1hr
in
rain 24hr
in
rain mn
in
humidity
%
barometer
mb
20260509114047 64 0 0.0 0.0 0.00 0.00 0.00 57 1018.7
20260509113550 64 0 0.0 0.9 0.00 0.00 0.00 56 1018.8
20260509113052 65 0 0.0 0.9 0.00 0.00 0.00 56 1018.7
20260509112546 66 0 0.0 2.6 0.00 0.00 0.00 58 1018.7
20260509112047 65 0 0.0 4.3 0.00 0.00 0.00 55 1018.9
20260509111552 65 360 0.0 4.3 0.00 0.00 0.00 57 1018.9
20260509111046 64 355 0.0 4.3 0.00 0.00 0.00 58 1018.9
20260509110546 64 0 0.0 0.9 0.00 0.00 0.00 59 1019.1
20260509110053 63 0 0.0 0.0 0.00 0.00 0.00 60 1019.2
20260509105545 62 0 0.0 0.0 0.00 0.00 0.00 62 1019.2
20260509105045 62 0 0.0 0.0 0.00 0.00 0.00 60 1019.3
20260509104552 62 0 0.0 0.9 0.00 0.00 0.00 60 1019.3
20260509104045 62 0 0.0 3.5 0.00 0.00 0.00 57 1019.4
20260509103549 64 0 0.0 3.5 0.00 0.00 0.00 57 1019.4
20260509103057 65 0 0.0 3.5 0.00 0.00 0.00 57 1019.3
20260509102545 65 0 0.0 3.5 0.00 0.00 0.00 59 1019.3
20260509102046 65 0 0.0 2.6 0.00 0.00 0.00 57 1019.3
20260509101555 65 0 0.0 3.5 0.00 0.00 0.00 58 1019.3
20260509101045 64 0 0.0 3.5 0.00 0.00 0.00 63 1019.4
20260509100548 63 0 0.0 0.0 0.00 0.00 0.00 61 1019.4
20260509100058 63 0 0.0 0.0 0.00 0.00 0.00 63 1019.4
20260509095548 61 0 0.0 0.0 0.00 0.00 0.00 63 1019.5
20260509095045 61 0 0.0 0.0 0.00 0.00 0.00 61 1019.5
20260509094555 62 0 0.0 0.0 0.00 0.00 0.00 61 1019.5
20260509094044 62 0 0.0 0.0 0.00 0.00 0.00 65 1019.5
20260509093547 62 0 0.0 0.0 0.00 0.00 0.00 62 1019.5
20260509093053 62 0 0.0 0.9 0.00 0.00 0.00 66 1019.6
20260509092545 62 0 0.0 0.9 0.00 0.00 0.00 64 1019.5
20260509092049 62 0 0.0 0.9 0.00 0.00 0.00 66 1019.5
20260509091553 62 0 0.0 1.7 0.00 0.00 0.00 65 1019.5
20260509091047 62 0 0.0 1.7 0.00 0.00 0.00 65 1019.5
20260509090545 62 0 0.0 5.2 0.00 0.00 0.00 64 1019.6
20260509090104 62 0 0.0 5.2 0.00 0.00 0.00 68 1019.6
20260509085544 61 0 0.0 0.9 0.00 0.00 0.00 66 1019.6
20260509085045 61 0 0.0 1.7 0.00 0.00 0.00 66 1019.7
20260509084554 61 0 0.0 1.7 0.00 0.00 0.00 70 1019.6
20260509084047 61 0 0.0 1.7 0.00 0.00 0.00 69 1019.6
20260509083546 60 0 0.0 2.6 0.00 0.00 0.00 70 1019.6
20260509083054 60 0 0.0 2.6 0.00 0.00 0.00 71 1019.5
20260509082546 60 37 0.0 2.6 0.00 0.00 0.00 70 1019.5
20260509082049 60 0 0.0 0.0 0.00 0.00 0.00 69 1019.6
20260509081551 60 0 0.0 0.0 0.00 0.00 0.00 68 1019.5
20260509081050 59 0 0.0 0.0 0.00 0.00 0.00 71 1019.5
20260509080546 59 0 0.0 0.0 0.00 0.00 0.00 72 1019.5
20260509080059 58 0 0.0 0.0 0.00 0.00 0.00 73 1019.5
20260509075545 58 0 0.0 0.0 0.00 0.00 0.00 73 1019.6
20260509075045 58 0 0.0 0.0 0.00 0.00 0.00 72 1019.7
20260509074549 58 0 0.0 0.0 0.00 0.00 0.00 73 1019.7
20260509074045 57 0 0.0 0.0 0.00 0.00 0.00 74 1019.6
20260509073546 57 0 0.0 0.0 0.00 0.00 0.00 75 1019.7
20260509073056 56 0 0.0 0.0 0.00 0.00 0.00 77 1019.7
20260509072546 56 0 0.0 0.0 0.00 0.00 0.00 77 1019.5
20260509072047 55 0 0.0 0.0 0.00 0.00 0.00 80 1019.6
20260509071600 55 0 0.0 0.0 0.00 0.00 0.00 81 1019.6
20260509071049 54 0 0.0 0.0 0.00 0.00 0.00 81 1019.8
20260509070546 54 0 0.0 0.0 0.00 0.00 0.00 82 1019.8
20260509070057 53 0 0.0 0.0 0.00 0.00 0.00 84 1019.8
20260509065545 53 0 0.0 0.0 0.00 0.00 0.00 87 1019.8
20260509065045 52 0 0.0 0.0 0.00 0.00 0.00 89 1019.8
20260509064604 52 0 0.0 0.0 0.00 0.00 0.00 91 1019.8
20260509064046 51 0 0.0 0.0 0.00 0.00 0.00 94 1019.8
20260509063545 50 0 0.0 0.0 0.00 0.00 0.00 95 1019.8
20260509063054 49 0 0.0 0.0 0.00 0.00 0.00 96 1019.7
20260509062547 48 0 0.0 0.0 0.00 0.00 0.00 96 1019.7
20260509062045 48 0 0.0 0.0 0.00 0.00 0.00 96 1019.7
20260509061553 47 0 0.0 0.0 0.00 0.00 0.00 96 1019.6
20260509061046 46 0 0.0 0.0 0.00 0.00 0.00 96 1019.6
20260509060547 46 0 0.0 0.0 0.00 0.00 0.00 96 1019.7
20260509060104 46 0 0.0 0.0 0.00 0.00 0.00 96 1019.8
20260509055547 45 0 0.0 0.0 0.00 0.00 0.00 96 1019.7
20260509055045 45 0 0.0 0.0 0.00 0.00 0.00 96 1019.6
20260509054604 44 0 0.0 0.0 0.00 0.00 0.00 96 1019.5
20260509054049 44 0 0.0 0.0 0.00 0.00 0.00 96 1019.4
20260509053546 43 0 0.0 0.0 0.00 0.00 0.00 96 1019.5
20260509053059 43 0 0.0 0.0 0.00 0.00 0.00 96 1019.4
20260509052545 43 0 0.0 0.0 0.00 0.00 0.00 96 1019.5
20260509052045 42 0 0.0 0.0 0.00 0.00 0.00 96 1019.5
20260509051553 42 0 0.0 0.0 0.00 0.00 0.00 96 1019.3
20260509051045 42 0 0.0 0.0 0.00 0.00 0.00 96 1019.4
20260509050548 42 0 0.0 0.0 0.00 0.00 0.00 96 1019.3
20260509050057 41 0 0.0 0.0 0.00 0.00 0.00 96 1019.5
20260509045545 41 0 0.0 0.0 0.00 0.00 0.00 96 1019.4
20260509045045 40 0 0.0 0.0 0.00 0.00 0.00 96 1019.4
20260509044552 40 0 0.0 0.0 0.00 0.00 0.00 95 1019.4
20260509044045 40 0 0.0 0.0 0.00 0.00 0.00 95 1019.3
20260509043545 40 0 0.0 0.0 0.00 0.00 0.00 95 1019.4
20260509043059 40 0 0.0 0.0 0.00 0.00 0.00 95 1019.3
20260509042546 40 0 0.0 0.0 0.00 0.00 0.00 95 1019.4
20260509042047 40 0 0.0 0.0 0.00 0.00 0.00 95 1019.3
20260509041600 40 0 0.0 0.0 0.00 0.00 0.00 95 1019.4
20260509041046 40 0 0.0 0.0 0.00 0.00 0.00 95 1019.5
20260509040545 40 0 0.0 0.0 0.00 0.00 0.00 95 1019.4
20260509040057 40 0 0.0 0.0 0.00 0.00 0.00 95 1019.4
20260509035545 40 0 0.0 0.0 0.00 0.00 0.00 95 1019.4
20260509035046 40 0 0.0 0.0 0.00 0.00 0.00 95 1019.5
20260509034604 40 0 0.0 0.0 0.00 0.00 0.00 95 1019.5
20260509034045 40 0 0.0 0.0 0.00 0.00 0.00 95 1019.5
20260509033542 40 0 0.0 0.0 0.00 0.00 0.00 95 1019.5
20260509033054 40 0 0.0 0.0 0.00 0.00 0.00 95 1019.6
20260509032545 40 0 0.0 0.0 0.00 0.00 0.00 95 1019.6
20260509032044 40 0 0.0 0.0 0.00 0.00 0.00 95 1019.6
20260509031602 40 0 0.0 0.0 0.00 0.00 0.00 95 1019.7
20260509031042 40 0 0.0 0.0 0.00 0.00 0.00 95 1019.8
20260509030546 40 0 0.0 0.0 0.00 0.00 0.00 95 1019.7
20260509030056 40 0 0.0 0.0 0.00 0.00 0.00 95 1019.7
20260509025549 40 0 0.0 0.0 0.00 0.00 0.00 95 1019.7
20260509025046 40 0 0.0 0.0 0.00 0.00 0.00 95 1019.7
20260509024554 41 0 0.0 0.0 0.00 0.00 0.00 95 1019.7
20260509024047 41 0 0.0 0.0 0.00 0.00 0.00 95 1019.8
20260509023544 41 0 0.0 0.0 0.00 0.00 0.00 95 1019.8
20260509023104 41 0 0.0 0.0 0.00 0.00 0.00 95 1019.7
20260509022544 41 0 0.0 0.0 0.00 0.00 0.00 95 1019.6
20260509022046 41 0 0.0 0.0 0.00 0.00 0.00 95 1019.6
20260509021555 41 0 0.0 0.0 0.00 0.00 0.00 95 1019.7
20260509021047 41 0 0.0 0.0 0.00 0.00 0.00 95 1019.7
20260509020547 41 0 0.0 0.0 0.00 0.00 0.00 95 1019.6
20260509020055 41 0 0.0 0.0 0.00 0.00 0.00 95 1019.7
20260509015546 41 0 0.0 0.0 0.00 0.00 0.00 95 1019.7
20260509015044 41 0 0.0 0.0 0.00 0.00 0.00 95 1019.8
20260509014550 41 0 0.0 0.0 0.00 0.00 0.00 95 1019.8
20260509014043 42 0 0.0 0.0 0.00 0.00 0.00 94 1019.8
20260509013545 42 0 0.0 0.0 0.00 0.00 0.00 94 1019.8
20260509013108 42 0 0.0 0.0 0.00 0.00 0.00 94 1019.8
20260509012544 42 0 0.0 0.0 0.00 0.00 0.00 95 1019.8
20260509012042 42 0 0.0 0.0 0.00 0.00 0.00 94 1019.9
20260509011550 42 0 0.0 0.0 0.00 0.00 0.00 94 1019.8
20260509011046 42 0 0.0 0.0 0.00 0.00 0.00 94 1019.9
20260509010545 42 0 0.0 0.0 0.00 0.00 0.00 94 1019.9
20260509010050 42 0 0.0 0.0 0.00 0.00 0.00 94 1019.8
20260509005543 42 0 0.0 0.0 0.00 0.00 0.00 94 1019.9
20260509005043 42 0 0.0 0.0 0.00 0.00 0.00 94 1019.8
20260509004553 42 0 0.0 0.0 0.00 0.00 0.00 94 1019.7
20260509004043 43 0 0.0 0.0 0.00 0.00 0.00 94 1019.8
20260509003543 43 0 0.0 0.0 0.00 0.00 0.00 94 1019.8
20260509003058 43 0 0.0 0.0 0.00 0.00 0.00 94 1019.8
20260509002545 43 0 0.0 0.0 0.00 0.00 0.00 94 1019.9
20260509002045 43 0 0.0 0.0 0.00 0.00 0.00 94 1019.8
20260509001552 43 0 0.0 0.0 0.00 0.00 0.00 94 1019.8
20260509001046 44 0 0.0 0.0 0.00 0.00 0.00 94 1019.9
20260509000542 43 0 0.0 0.0 0.00 0.00 0.00 94 1019.8
20260509000056 43 0 0.0 0.0 0.00 0.00 0.00 94 1019.8
20260508235543 44 0 0.0 0.0 0.00 0.00 0.00 94 1019.9
20260508235042 44 0 0.0 0.0 0.00 0.00 0.00 94 1019.9
20260508234549 44 0 0.0 0.0 0.00 0.00 0.00 94 1019.9
20260508234042 44 0 0.0 0.0 0.00 0.00 0.00 94 1019.8
20260508233542 44 0 0.0 0.0 0.00 0.00 0.00 94 1019.8
20260508233052 44 0 0.0 0.0 0.00 0.00 0.00 93 1019.7
20260508232545 44 0 0.0 0.0 0.00 0.00 0.00 93 1019.7
20260508232045 44 0 0.0 0.0 0.00 0.00 0.00 93 1019.6
20260508231554 44 0 0.0 0.0 0.00 0.00 0.00 93 1019.6
20260508231045 45 0 0.0 0.0 0.00 0.00 0.00 93 1019.6
20260508230546 45 0 0.0 0.0 0.00 0.00 0.00 93 1019.6
20260508230058 45 0 0.0 0.0 0.00 0.00 0.00 93 1019.7
20260508225543 45 0 0.0 0.0 0.00 0.00 0.00 93 1019.6
20260508225043 45 0 0.0 0.0 0.00 0.00 0.00 93 1019.6
20260508224604 45 0 0.0 0.0 0.00 0.00 0.00 93 1019.7
20260508224042 45 0 0.0 0.0 0.00 0.00 0.00 93 1019.7
20260508223547 45 0 0.0 0.0 0.00 0.00 0.00 93 1019.8
20260508223047 45 0 0.0 0.0 0.00 0.00 0.00 92 1019.7
20260508222543 46 0 0.0 0.0 0.00 0.00 0.00 92 1019.8
20260508222042 46 0 0.0 0.0 0.00 0.00 0.00 92 1019.8
20260508221602 46 0 0.0 0.0 0.00 0.00 0.00 92 1019.8
20260508221047 46 0 0.0 0.0 0.00 0.00 0.00 92 1019.8
20260508220546 46 0 0.0 0.0 0.00 0.00 0.00 92 1019.9
20260508220050 46 0 0.0 0.0 0.00 0.00 0.00 92 1019.8
20260508215546 46 0 0.0 0.0 0.00 0.00 0.00 91 1020.0
20260508215045 47 0 0.0 0.0 0.00 0.00 0.00 91 1019.9
20260508214551 47 0 0.0 0.0 0.00 0.00 0.00 91 1019.9
20260508214045 47 0 0.0 0.0 0.00 0.00 0.00 91 1019.9
20260508213544 47 0 0.0 0.0 0.00 0.00 0.00 91 1019.9
20260508213110 47 0 0.0 0.0 0.00 0.00 0.00 91 1019.9
20260508212545 47 0 0.0 0.0 0.00 0.00 0.00 90 1020.0
20260508212045 47 0 0.0 0.0 0.00 0.00 0.00 90 1020.1
20260508211551 48 0 0.0 0.0 0.00 0.00 0.00 90 1020.0
20260508211046 48 0 0.0 0.0 0.00 0.00 0.00 90 1020.0
20260508210544 48 0 0.0 0.0 0.00 0.00 0.00 89 1020.0
20260508210049 48 0 0.0 0.0 0.00 0.00 0.00 89 1019.9
20260508205544 48 0 0.0 0.0 0.00 0.00 0.00 88 1019.9
20260508205045 49 0 0.0 0.0 0.00 0.00 0.00 88 1019.8
20260508204551 49 0 0.0 0.0 0.00 0.00 0.00 88 1020.0
20260508204041 49 0 0.0 0.0 0.00 0.00 0.00 87 1019.9
20260508203541 49 0 0.0 0.0 0.00 0.00 0.00 87 1019.9
20260508203114 50 0 0.0 0.0 0.00 0.00 0.00 87 1019.8
20260508202545 50 0 0.0 0.0 0.00 0.00 0.00 87 1019.8
20260508202045 50 0 0.0 0.0 0.00 0.00 0.00 86 1019.8
20260508201551 50 0 0.0 0.0 0.00 0.00 0.00 86 1019.6
20260508201045 50 0 0.0 0.0 0.00 0.00 0.00 85 1019.7
20260508200545 51 0 0.0 0.0 0.00 0.00 0.00 84 1019.6
20260508200054 51 0 0.0 0.0 0.00 0.00 0.00 84 1019.7
20260508195544 51 0 0.0 0.0 0.00 0.00 0.00 83 1019.7
20260508195045 52 0 0.0 0.0 0.00 0.00 0.00 83 1019.7
20260508194553 52 0 0.0 0.0 0.00 0.00 0.00 82 1019.8
20260508194045 52 0 0.0 0.0 0.00 0.00 0.00 81 1019.7
20260508193544 53 0 0.0 0.0 0.00 0.00 0.00 80 1019.7
20260508193123 53 0 0.0 0.0 0.00 0.00 0.00 79 1019.7
20260508192541 53 0 0.0 0.0 0.00 0.00 0.00 79 1019.6
20260508192044 54 0 0.0 0.0 0.00 0.00 0.00 78 1019.6
20260508191552 54 0 0.0 0.9 0.00 0.00 0.00 77 1019.4
20260508191044 54 0 0.0 0.9 0.00 0.00 0.00 76 1019.4
20260508190545 54 0 0.0 0.0 0.00 0.00 0.00 76 1019.4
20260508190055 54 0 0.0 0.0 0.00 0.00 0.00 75 1019.2
20260508185546 55 0 0.0 2.6 0.00 0.00 0.00 75 1019.1
20260508185045 55 0 0.0 2.6 0.00 0.00 0.00 74 1019.1
20260508184626 55 0 0.0 0.0 0.00 0.00 0.00 74 1019.0
20260508184041 55 0 0.0 1.7 0.00 0.00 0.00 73 1019.0
20260508183544 55 0 0.0 2.6 0.00 0.00 0.00 72 1019.0
20260508183051 56 0 0.0 4.3 0.00 0.00 0.00 72 1019.0
20260508182543 56 0 0.0 4.3 0.00 0.00 0.00 72 1018.9
20260508182041 56 0 0.0 4.3 0.00 0.00 0.00 71 1018.9
20260508181550 56 0 0.0 4.3 0.00 0.00 0.00 70 1018.9
20260508181044 56 0 0.9 5.2 0.00 0.00 0.00 70 1018.9
20260508180542 56 0 1.7 5.2 0.00 0.00 0.00 70 1018.8
20260508175544 57 0 0.0 7.0 0.00 0.00 0.00 69 1018.9
20260508175042 57 0 0.0 7.0 0.00 0.00 0.00 68 1018.8
20260508174611 57 0 0.9 6.1 0.00 0.00 0.00 68 1018.8
20260508174044 57 36 0.0 5.2 0.00 0.00 0.00 68 1018.7
20260508173542 58 0 0.0 5.2 0.00 0.00 0.00 68 1018.6
20260508173110 58 0 0.0 4.3 0.00 0.00 0.00 68 1018.7
20260508172547 58 0 0.0 8.7 0.00 0.00 0.00 68 1018.6
20260508172045 58 0 0.0 8.7 0.00 0.00 0.00 68 1018.6
20260508171615 58 37 0.9 6.1 0.00 0.00 0.00 67 1018.5
20260508171046 59 0 1.7 6.1 0.00 0.00 0.00 67 1018.4
20260508170545 59 0 0.0 3.5 0.00 0.00 0.00 66 1018.4
20260508170051 59 0 0.0 5.2 0.00 0.00 0.00 65 1018.4
20260508165544 59 0 0.9 5.2 0.00 0.00 0.00 65 1018.3
20260508165044 58 0 0.9 4.3 0.00 0.00 0.00 66 1018.4
20260508164548 59 0 0.0 7.8 0.00 0.00 0.00 66 1018.4
20260508164045 59 0 0.9 7.8 0.00 0.00 0.00 65 1018.4
20260508163544 59 0 0.9 7.8 0.00 0.00 0.00 65 1018.3
20260508163056 59 0 0.0 4.3 0.00 0.00 0.00 65 1018.4
20260508162547 59 0 0.9 4.3 0.00 0.00 0.00 64 1018.3
20260508162045 59 0 0.0 2.6 0.00 0.00 0.00 64 1018.4
20260508161559 59 0 0.0 4.3 0.00 0.00 0.00 63 1018.3
20260508161044 59 0 0.0 5.2 0.00 0.00 0.00 63 1018.4
20260508160547 60 26 0.0 6.1 0.00 0.00 0.00 63 1018.4
20260508160053 60 23 0.0 6.1 0.00 0.00 0.00 63 1018.4
20260508155545 60 0 0.9 5.2 0.00 0.00 0.00 61 1018.3
20260508155045 60 0 1.7 5.2 0.00 0.00 0.00 62 1018.4
20260508154549 60 0 0.0 3.5 0.00 0.00 0.00 63 1018.3
20260508154044 59 0 0.0 0.9 0.00 0.00 0.00 61 1018.4
20260508153543 59 0 0.0 1.7 0.00 0.00 0.00 62 1018.5
20260508153050 59 0 0.0 3.5 0.00 0.00 0.00 64 1018.4
20260508152544 59 0 0.0 3.5 0.00 0.00 0.00 62 1018.5
20260508152044 59 40 0.0 3.5 0.00 0.00 0.00 62 1018.5
20260508151558 60 0 0.0 0.9 0.00 0.00 0.00 63 1018.6
20260508151042 60 0 0.0 4.3 0.00 0.00 0.00 62 1018.6
20260508150547 60 36 0.0 4.3 0.00 0.00 0.00 64 1018.6
20260508150055 60 0 0.0 3.5 0.00 0.00 0.00 61 1018.5
20260508145544 60 0 0.0 0.0 0.00 0.00 0.00 61 1018.5
20260508145041 59 0 0.0 3.5 0.00 0.00 0.00 62 1018.6
20260508144553 60 0 0.0 5.2 0.00 0.00 0.00 62 1018.6
20260508144045 60 0 0.0 5.2 0.00 0.00 0.00 63 1018.6
20260508143541 60 336 0.0 1.7 0.00 0.00 0.00 62 1018.5
20260508143057 60 0 0.0 1.7 0.00 0.00 0.00 61 1018.5
20260508142545 60 34 0.0 7.8 0.00 0.00 0.00 61 1018.6
20260508142045 60 0 0.0 7.8 0.00 0.00 0.00 60 1018.7
20260508141553 60 34 0.9 7.8 0.00 0.00 0.00 59 1018.6
20260508141042 60 0 0.0 4.3 0.00 0.00 0.00 60 1018.6
20260508140544 60 0 0.0 4.3 0.00 0.00 0.00 60 1018.7
20260508140051 61 0 1.7 4.3 0.00 0.00 0.00 60 1018.7
20260508135545 61 0 0.0 3.5 0.00 0.00 0.00 61 1018.7
20260508135041 60 0 0.0 2.6 0.00 0.00 0.00 60 1018.6
20260508134606 60 0 0.0 2.6 0.00 0.00 0.00 58 1018.6
20260508134044 60 0 0.0 3.5 0.00 0.00 0.00 59 1018.7
20260508133541 60 0 0.0 5.2 0.00 0.00 0.00 59 1018.5
20260508133110 60 0 0.9 5.2 0.00 0.00 0.00 58 1018.6
20260508132541 60 0 0.0 3.5 0.00 0.00 0.00 59 1018.7
20260508132044 60 0 0.0 4.3 0.00 0.00 0.00 58 1018.5
20260508131551 60 0 0.0 4.3 0.00 0.00 0.00 59 1018.5
20260508131044 60 15 0.0 6.1 0.00 0.00 0.00 58 1018.5
20260508130546 61 0 0.9 6.1 0.00 0.00 0.00 60 1018.5
20260508130049 62 349 0.0 7.0 0.00 0.00 0.00 59 1018.6
20260508125545 62 0 0.9 8.7 0.00 0.00 0.00 59 1018.6
20260508125045 62 0 0.9 8.7 0.00 0.00 0.00 58 1018.6
20260508124552 63 0 1.7 8.7 0.00 0.00 0.00 58 1018.6
20260508124044 62 17 0.0 7.0 0.00 0.00 0.00 57 1018.7
20260508123542 62 0 0.0 7.0 0.00 0.00 0.00 54 1018.6
20260508123101 62 0 0.0 7.0 0.00 0.00 0.00 56 1018.7
20260508122544 62 348 0.0 9.6 0.00 0.00 0.00 60 1018.8
20260508122044 62 360 0.9 9.6 0.00 0.00 0.00 58 1018.8
20260508121557 62 347 1.7 9.6 0.00 0.00 0.00 62 1018.7
20260508121044 61 0 0.0 5.2 0.00 0.00 0.00 58 1018.8
20260508120541 61 0 0.0 5.2 0.00 0.00 0.00 56 1018.6
20260508120055 62 0 0.9 5.2 0.00 0.00 0.00 59 1018.8
20260508115544 61 0 0.9 6.1 0.00 0.00 0.00 60 1018.8
20260508115043 61 296 0.9 6.1 0.00 0.00 0.00 59 1018.8
20260508114554 61 0 0.0 5.2 0.00 0.00 0.00 60 1018.7